RH
50 46 15 16 17 17 18 17 14 13 10 11 11 9 8 12 14 12 6 4 3 3 3 3 3 2 2 2 2 2 3 2 5 6 6 6 5 4 3 3 3 3 3
31 60 24 18 18 16 16 18 16 12 9 10 11 9 8 10 12 14 11 7 6 5 4 4 3 3 2 2 2 3 3 4 6 7 7 7 6 5 4 4 3 3 3
30 39 49 19 22 19 16 17 18 15 8 9 10 9 8 10 11 14 14 12 12 11 8 6 4 3 3 3 3 4 5 7 8 8 8 8 8 6 5 4 4 3 4
34 33 57 35 23 25 21 17 18 17 7 8 10 9 8 10 14 23 20 15 15 15 15 13 10 8 6 5 5 6 8 8 9 11 14 14 10 8 6 6 6 6 6
30 38 36 63 31 27 28 23 15 20 8 7 10 9 8 10 17 27 26 23 21 19 18 18 15 12 10 9 9 10 13 17 21 21 19 18 13 10 9 8 8 8 8
29 38 41 53 56 30 28 30 15 21 12 7 9 9 8 10 21 28 25 24 25 24 22 21 20 15 14 14 17 20 24 26 27 26 26 24 21 18 13 10 9 9 8
32 34 42 44 61 48 30 31 22 23 18 7 9 9 8 10 18 26 24 26 26 27 25 24 22 22 24 26 27 27 28 27 29 30 32 33 32 31 26 19 15 16 16
29 45 50 49 63 62 31 32 29 27 21 8 8 8 8 9 19 26 25 26 25 25 25 25 25 26 29 28 27 27 28 28 29 29 32 32 30 31 32 33 32 27 25
36 48 52 58 74 73 44 31 34 29 22 10 8 8 8 13 25 28 27 26 25 23 24 26 26 26 24 22 22 24 26 22 21 25 23 22 24 26 30 35 37 38 37
37 53 51 62 77 80 66 32 37 31 25 12 8 9 8 14 28 30 28 27 26 24 26 26 26 24 23 22 21 21 21 22 22 20 20 20 20 22 28 31 33 33 34
32 64 66 59 74 92 55 40 38 37 29 15 8 9 8 13 26 31 29 28 27 27 28 25 26 28 29 28 26 27 26 26 25 24 21 18 20 22 23 24 25 25 26
25 62 70 65 71 93 68 33 32 44 35 22 9 8 9 11 25 31 31 29 28 29 28 27 29 33 34 32 34 35 33 34 32 29 22 15 13 19 23 22 22 22 22
25 73 74 95 64 92 91 42 32 38 41 35 14 9 9 10 21 32 31 31 30 30 29 29 32 35 36 38 40 41 40 42 38 32 26 21 14 9 10 18 21 22 23
21 96 74 96 65 71 99 80 42 32 36 37 34 11 10 10 13 31 33 34 32 32 31 30 35 37 38 42 41 43 46 44 43 40 35 32 25 13 7 7 8 8 9
21 96 91 90 85 90 92 95 92 41 33 34 36 25 10 10 10 22 33 36 35 34 33 32 36 39 39 42 42 41 43 46 47 42 40 37 34 28 33 19 8 7 7
22 97 99 93 98 84 98 91 95 72 40 32 33 36 14 11 10 11 26 37 38 37 34 34 37 42 41 43 46 44 42 42 43 40 42 40 39 41 40 36 32 18 13
25 92 94 96 95 96 96 90 88 74 45 32 31 34 32 11 11 11 14 34 41 40 37 37 37 42 43 45 48 47 47 46 48 48 48 47 45 46 47 45 41 37 26
30 83 95 96 93 70 93 91 93 100 56 38 32 30 36 24 11 12 11 17 39 42 40 40 40 41 45 47 50 53 54 52 52 53 53 52 51 50 52 52 50 48 44
50 60 97 97 97 97 99 98 96 100 67 46 35 31 31 36 21 12 12 12 20 36 41 43 44 43 45 50 53 59 60 63 60 61 61 61 58 58 58 60 56 54 50
45 48 96 97 96 96 97 98 96 89 90 58 38 34 30 33 43 24 13 13 13 18 30 41 46 48 48 51 56 60 69 74 76 71 72 74 71 65 55 53 56 58 55
42 42 97 96 98 94 91 96 96 97 92 67 46 39 33 30 34 46 31 15 14 14 17 21 38 49 53 53 57 63 73 82 86 85 90 83 80 76 67 59 64 67 67
47 63 82 95 90 94 95 96 97 94 93 72 61 44 40 34 31 36 48 32 17 14 16 16 16 35 52 55 55 59 70 84 87 88 86 86 82 86 83 78 77 80 78
48 52 70 96 98 96 99 96 96 96 97 87 79 57 46 47 39 30 36 44 36 21 15 15 14 15 31 52 59 59 60 66 75 83 93 94 84 81 74 78 82 85 78
79 63 63 91 96 96 97 96 93 84 92 97 96 87 58 51 48 39 32 33 41 40 25 17 15 13 14 30 52 64 65 65 70 74 84 87 77 88 82 78 88 86 84
45 41 52 62 93 96 92 90 90 97 98 96 97 93 89 60 53 51 44 38 38 46 42 28 18 15 14 18 34 50 54 71 79 84 87 91 86 77 60 62 81 96 73
24 26 28 33 50 70 84 86 93 93 97 92 91 97 96 81 61 56 54 52 47 48 51 45 30 18 16 16 21 32 39 51 66 86 94 82 81 83 61 59 69 61 49
Wind_Speed
27 24 24 23 24 23 22 21 21 20 21 18 13 11 11 11 10 11 12 13 13 13 13 12 12 12 11 9 8 6 5 5 4 3 4 4 5 5 3 3 4 4 5
30 28 27 26 25 25 24 23 23 22 23 21 17 13 12 12 11 11 12 12 12 11 12 12 12 12 11 10 8 6 5 5 3 3 3 4 4 3 3 3 2 3 4
33 32 31 29 28 28 27 26 25 24 25 24 20 16 15 14 13 12 11 11 11 10 9 9 9 10 9 8 7 6 5 4 3 2 2 3 3 4 4 4 4 4 4
37 36 35 33 31 30 29 28 27 26 28 27 23 20 18 17 15 13 12 11 10 10 9 8 8 8 7 7 6 5 4 2 1 1 2 2 2 3 3 3 3 3 3
41 39 37 37 35 32 31 29 29 28 29 29 26 23 21 20 18 15 13 12 10 9 8 8 8 8 7 6 5 4 3 3 3 3 2 3 3 3 3 3 4 4 4
46 43 41 39 38 35 34 31 30 30 30 30 28 26 24 23 21 18 15 12 10 10 9 8 7 7 7 6 6 6 7 7 6 6 6 5 5 6 5 6 7 8 8
52 47 44 42 42 38 37 34 32 31 31 32 30 28 27 26 23 20 17 15 13 12 11 11 9 9 9 8 7 8 8 8 8 7 8 7 7 8 8 8 9 10 11
58 52 48 45 45 42 39 37 35 33 33 34 32 30 29 28 26 23 20 18 16 15 14 13 12 10 8 7 7 7 8 8 9 9 8 8 9 11 11 11 12 12 13
62 57 52 49 47 46 42 40 38 35 35 36 35 33 31 30 28 26 23 22 20 18 17 14 11 9 7 5 4 3 4 5 5 6 7 8 9 11 12 12 13 14 15
66 61 59 54 50 48 48 42 41 38 37 38 38 36 34 33 31 29 26 24 23 21 18 15 12 9 7 5 3 2 3 3 5 7 7 8 9 9 10 11 12 12 13
68 62 60 58 54 51 46 46 44 42 40 39 40 39 37 36 34 31 30 28 25 23 21 18 15 11 8 7 5 4 4 5 5 6 8 10 11 11 11 11 11 12 11
71 68 63 63 57 54 49 47 46 45 43 41 43 42 40 38 36 34 33 31 28 26 24 21 18 14 10 9 9 7 7 6 7 8 9 10 12 13 13 13 13 13 14
70 67 62 62 64 58 54 49 49 46 46 45 44 44 43 41 40 37 36 34 31 29 27 24 20 16 13 12 11 10 10 10 10 9 9 10 12 13 14 15 16 17 17
80 59 79 57 75 67 60 53 50 49 49 48 46 46 45 43 42 41 39 36 33 32 30 27 23 19 16 14 13 12 12 11 11 11 11 13 14 15 17 18 18 19 19
84 61 82 71 72 60 64 59 57 53 52 51 50 49 48 45 45 43 41 39 36 34 33 31 28 23 20 18 16 14 14 14 14 14 14 15 15 16 19 21 22 23 23
84 84 61 74 62 66 64 66 59 59 55 54 54 51 51 49 47 46 44 41 39 37 36 34 32 28 26 23 21 19 17 17 17 17 18 18 18 20 20 22 25 27 28
87 69 76 74 54 66 66 60 61 62 62 58 56 54 52 51 50 48 47 45 42 40 39 38 36 33 31 28 26 24 23 21 21 21 23 24 23 23 24 26 27 30 31
81 100 72 43 73 78 67 75 67 66 65 62 60 58 55 53 52 51 49 48 46 44 42 40 38 37 35 33 31 29 28 27 26 26 27 27 27 28 31 33 34 35 35
68 86 76 51 60 74 86 68 60 66 70 65 62 60 58 55 55 52 51 50 49 47 44 42 41 40 39 38 36 34 32 31 30 31 32 32 31 32 35 37 40 41 40
69 83 86 60 87 88 72 66 51 78 69 65 64 62 59 58 55 53 52 51 50 49 47 45 44 43 43 41 40 39 38 36 35 36 36 36 36 38 40 43 45 47 50
66 81 78 64 61 66 74 61 59 65 70 68 63 61 60 58 56 53 52 51 52 51 50 48 47 46 45 44 43 43 43 43 40 40 40 40 42 44 44 47 48 52 53
56 54 53 73 58 50 38 68 48 59 65 72 64 63 61 59 56 54 52 52 52 52 50 50 49 49 48 47 47 47 47 49 48 48 47 46 45 48 49 51 54 56 57
47 53 68 57 65 75 48 44 59 43 55 69 66 63 60 57 53 53 52 52 52 52 51 51 52 52 52 52 51 51 52 54 56 53 54 47 50 51 56 58 58 61 53
25 36 55 59 68 61 63 43 24 24 49 56 63 61 60 58 54 52 50 51 52 52 51 52 53 52 53 53 53 53 56 58 56 56 56 54 58 60 59 61 61 60 50
19 30 34 32 36 42 63 67 52 29 32 56 62 72 63 59 55 52 51 52 51 53 52 52 53 52 53 53 53 53 56 57 55 54 56 62 62 54 48 54 53 52 47
21 28 29 26 34 31 38 43 48 37 27 37 38 57 65 61 57 52 51 50 50 52 53 52 53 54 54 54 54 57 58 59 54 56 58 59 58 57 45 42 44 46 49
Wind_Direction
232 224 220 221 219 213 208 207 205 203 199 196 197 193 175 164 158 151 151 151 152 150 147 149 155 159 167 171 174 174 175 159 142 107 74 57 48 47 43 36 22 14 7
231 231 222 220 221 218 213 211 208 205 202 198 198 197 186 172 167 158 154 155 154 155 155 156 160 166 174 181 180 178 167 159 137 110 71 40 25 22 14 4 7 349 351
231 229 226 218 220 219 216 215 210 208 204 202 198 198 192 181 174 168 167 164 162 161 161 160 164 167 174 179 178 172 160 150 130 66 19 359 334 337 339 345 346 350 359
232 229 226 223 219 220 217 216 215 210 205 204 200 199 194 185 180 176 173 173 174 170 170 167 171 178 180 181 174 171 170 171 199 280 305 304 314 331 348 352 349 350 348
230 229 225 227 220 220 218 217 215 214 208 205 202 201 195 189 184 186 181 179 180 180 177 175 181 182 184 183 190 209 231 235 255 268 264 275 286 302 321 320 319 316 314
230 226 226 223 224 220 219 217 215 215 211 208 206 203 197 192 188 190 188 192 193 193 190 192 198 201 205 211 219 236 252 262 266 274 273 272 275 280 287 290 294 298 297
225 225 224 222 221 220 219 216 215 214 214 210 209 206 199 193 192 192 195 197 202 202 203 208 210 220 226 233 242 249 261 270 280 277 280 278 283 290 289 285 287 289 291
221 220 221 222 218 218 217 214 214 213 212 210 211 208 202 196 194 196 200 201 203 207 206 209 210 217 223 237 248 261 270 278 289 289 289 296 300 295 292 290 288 285 288
219 216 217 219 219 214 217 214 212 211 210 209 210 210 204 198 197 201 202 204 203 205 205 204 205 211 215 224 243 257 276 291 308 309 311 314 307 296 291 288 293 294 292
217 214 215 215 217 212 213 216 211 209 209 208 208 210 206 201 200 204 204 207 207 204 204 204 202 200 211 215 211 259 282 310 322 322 315 309 307 300 289 291 298 301 299
213 212 213 213 214 213 208 213 211 209 208 208 209 209 208 203 202 206 207 210 208 206 205 203 204 200 210 221 219 235 270 297 309 321 318 307 301 301 301 303 306 307 309
209 212 210 213 212 213 208 207 213 210 209 208 209 209 210 208 205 207 210 212 210 210 208 206 206 208 217 226 232 236 254 270 288 307 322 322 310 301 300 301 301 301 302
204 207 207 203 208 212 209 207 210 213 211 209 209 209 210 209 208 209 211 214 213 213 211 209 211 216 219 228 242 239 246 264 277 298 318 330 322 308 302 296 294 295 296
199 197 205 205 206 207 205 204 208 210 213 212 210 210 211 211 211 211 213 216 216 216 214 213 215 221 223 229 241 242 250 253 266 282 301 323 329 324 315 306 300 295 294
200 198 206 220 206 201 205 207 207 211 213 214 212 211 211 212 214 213 215 216 217 218 217 216 217 221 227 233 243 251 254 260 266 274 293 307 321 322 322 314 306 303 299
201 211 198 217 199 203 213 212 209 212 215 215 214 213 211 212 215 215 217 219 219 220 221 220 220 224 227 233 243 250 255 263 268 278 289 295 300 310 313 315 311 303 298
205 195 204 193 182 201 207 201 219 212 212 213 214 214 214 213 215 216 218 221 222 223 223 224 224 226 229 233 240 249 255 262 267 274 283 292 292 296 301 302 304 300 296
210 205 198 202 207 202 204 204 209 213 211 212 213 213 214 215 216 217 218 221 223 225 226 227 229 230 233 235 238 246 252 257 263 267 273 282 283 286 293 295 299 299 296
217 214 208 207 186 199 202 208 199 205 212 211 213 214 212 215 217 218 220 223 224 226 227 229 231 233 235 239 241 244 249 254 259 268 268 272 277 281 289 291 296 297 294
217 215 212 202 205 209 207 202 204 210 214 213 213 214 214 214 217 219 222 224 227 229 230 231 233 235 238 240 241 246 250 253 257 261 264 269 273 276 287 292 295 298 294
216 215 217 194 195 202 207 209 209 219 214 216 213 215 217 216 218 220 223 225 227 230 232 233 235 237 239 241 243 245 249 253 256 258 261 265 269 273 279 286 293 293 292
225 232 238 223 211 201 199 219 204 204 217 216 216 219 218 219 219 221 223 226 229 231 233 235 237 238 240 242 244 246 248 252 255 258 260 262 268 272 278 283 289 291 291
227 234 229 235 237 224 199 202 210 218 218 218 220 222 220 222 220 222 224 228 231 233 235 237 240 240 242 244 246 248 251 252 258 265 272 270 277 279 283 283 287 288 285
232 234 234 234 237 242 201 208 214 236 226 221 217 224 221 222 222 224 226 229 232 235 237 239 242 244 245 247 250 252 256 258 260 265 270 279 279 277 283 286 286 292 283
206 228 238 240 252 247 241 230 239 227 231 218 223 223 223 222 222 224 226 230 233 236 238 241 243 244 247 249 251 254 258 262 265 271 271 274 278 284 289 287 290 285 280
211 225 235 244 245 260 258 244 256 228 228 223 225 230 217 221 224 225 229 231 235 238 240 242 245 246 248 250 253 256 258 262 264 267 269 276 278 278 281 290 284 281 282